Location: Marcé
(47.5801°N, 0.3280°W)
Time: 07:22:32
(UTC+01:00)

Altair - Pass Details

Date: 14 December 2021
Orbit: 1501 x 1683 km, 47.2° (Epoch: 21 January)

Event Time Altitude Azimuth Distance (km) Brightness Sun altitude
Rises 14:08:44 0° 233° (SW) 4,857 11.0 17.3°
Reaches altitude 10° 14:11:56 10° 231° (SW) 3,849 10.7 17.2°
Maximum altitude 14:21:31 63° 153° (SSE) 1,732 8.4 16.6°
Drops below altitude 10° 14:30:45 10° 75° (ENE) 3,718 9.2 16.0°
Sets 14:33:47 0° 73° (ENE) 4,683 9.7 15.8°
